Location: Rosenheim
(47.8408°N, 12.2113°E)
Time: 01:41:22
(UTC+02:00)

OTV 5 (USA 277) - Visible Passes

Search period start: 28 May 2018 00:00
Search period end: 07 June 2018 00:00
Orbit: 308 x 326 km, 54.5° (Epoch: 06 May)

Date Brightness Start Highest point End Pass type
(mag) Time Alt. Az. Time Alt. Az. Time Alt. Az.
01 Jun ? 04:02:04 12° S 04:03:53 21° SE 04:06:04 10° E visible
02 Jun ? 04:15:49 13° SW 04:18:08 49° SE 04:20:50 10° ENE visible
03 Jun ? 02:58:40 14° SE 02:58:40 14° SE 03:00:06 10° E visible
03 Jun ? 04:29:47 10° WSW 04:32:32 71° NNW 04:35:18 10° NE visible
04 Jun ? 03:12:19 29° SSE 03:12:44 31° SE 03:15:15 10° ENE visible
05 Jun ? 03:25:55 31° SW 03:27:03 76° SSE 03:29:49 10° ENE visible
06 Jun ? 02:08:37 15° E 02:08:37 15° E 02:09:31 10° E visible
06 Jun ? 03:39:27 15° W 03:41:29 49° NNW 03:44:12 10° NE visible
